DW4221 Weather Reports


Display with metric or nautical units.
time (UTC)temp
F
wind
direction
speed
MPH
gust
MPH
rain 1hr
in
rain 24hr
in
rain mn
in
humidity
%
barometer
mb
20260901191606 77 222 3.0 11.0 0.00 0.00 0.00 54 1013.1
20260901184603 76 45 1.0 11.0 0.00 0.00 0.00 56 1013.4
20260901183055 77 225 3.0 15.0 0.00 0.00 0.00 56 1013.4
20260901181607 76 290 3.0 12.0 0.00 0.00 0.00 56 1013.5
20260901180105 76 258 4.0 14.0 0.00 0.00 0.00 57 1013.5
20260901174603 76 180 5.0 15.0 0.00 0.00 0.00 55 1013.5
20260901173058 75 137 4.0 15.0 0.00 0.00 0.00 56 1013.6
20260901171555 75 207 4.0 11.0 0.00 0.00 0.00 58 1013.8
20260901170120 75 273 3.0 12.0 0.00 0.00 0.00 58 1014.0
20260901164607 74 215 3.0 16.0 0.00 0.01 0.00 60 1014.0
20260901163100 74 302 3.0 13.0 0.00 0.01 0.00 63 1014.1
20260901161600 73 263 3.0 12.0 0.00 0.01 0.00 67 1014.1
20260901160103 72 279 3.0 13.0 0.00 0.01 0.00 67 1014.2
20260901154615 71 294 4.0 13.0 0.00 0.01 0.00 70 1014.4
20260901153113 70 200 4.0 13.0 0.00 0.01 0.00 71 1014.3
20260901151557 69 257 3.0 10.0 0.00 0.01 0.00 74 1014.1
20260901150103 68 186 3.0 8.0 0.00 0.01 0.00 80 1014.0
20260901144552 66 273 2.0 9.0 0.00 0.01 0.00 84 1014.0
20260901143057 65 235 3.0 7.0 0.00 0.01 0.00 86 1013.8
20260901141604 63 188 2.0 5.0 0.00 0.01 0.00 91 1014.1
20260901140055 62 227 0.0 4.0 0.00 0.01 0.00 94 1013.9
20260901134601 59 227 1.0 4.0 0.00 0.01 0.00 95 1014.0
20260901133105 58 0 0.0 0.0 0.00 0.01 0.00 99 1014.2
20260901131603 56 0 0.0 3.0 0.00 0.01 0.00 99 1014.2
20260901124605 51 0 0.0 0.0 0.00 0.01 0.00 99 1014.1
20260901123055 50 0 0.0 0.0 0.00 0.01 0.00 98 1014.1
20260901121603 50 0 0.0 0.0 0.00 0.01 0.00 98 1013.9
20260901120118 49 0 0.0 0.0 0.00 0.01 0.00 98 1013.8
20260901114556 49 0 0.0 0.0 0.00 0.01 0.00 98 1013.9
20260901113101 49 0 0.0 0.0 0.00 0.01 0.00 97 1013.6
20260901111557 49 0 0.0 0.0 0.00 0.01 0.00 97 1013.6
20260901110058 50 0 0.0 0.0 0.00 0.01 0.00 97 1013.4
20260901104603 50 0 0.0 0.0 0.00 0.06 0.00 97 1013.4
20260901103102 51 0 0.0 0.0 0.00 0.06 0.00 97 1013.3
20260901101556 51 0 0.0 0.0 0.00 0.06 0.00 98 1013.4
20260901100056 51 0 0.0 0.0 0.00 0.06 0.00 97 1013.4
20260901094603 51 0 0.0 0.0 0.00 0.25 0.00 97 1013.4
20260901093059 51 0 0.0 0.0 0.00 0.25 0.00 97 1013.3
20260901091554 52 0 0.0 0.0 0.00 0.25 0.00 97 1013.1
20260901084604 52 0 0.0 0.0 0.00 0.25 0.00 98 1013.2
20260901083057 52 0 0.0 0.0 0.00 0.25 0.00 97 1013.0
20260901081554 52 0 0.0 0.0 0.00 0.25 0.00 97 1013.1
20260901080056 52 0 0.0 0.0 0.00 0.25 0.00 97 1013.0
20260901074604 53 0 0.0 0.0 0.00 0.25 0.00 97 1013.3
20260901073055 53 0 0.0 0.0 0.00 0.25 0.00 96 1013.4
20260901071605 54 0 0.0 0.0 0.00 0.25 0.00 97 1013.4
20260901070106 54 0 0.0 0.0 0.00 0.25 0.00 96 1013.4
20260901064600 54 0 0.0 0.0 0.00 0.32 0.00 96 1013.3
20260901063113 55 0 0.0 0.0 0.00 0.32 0.00 96 1013.3
20260901061621 55 0 0.0 0.0 0.00 0.32 0.00 96 1013.2
20260901060105 56 0 0.0 0.0 0.00 0.32 0.00 97 1013.1
20260901054602 56 0 0.0 0.0 0.00 0.42 0.00 96 1013.2
20260901053100 56 0 0.0 0.0 0.00 0.42 0.00 96 1013.2
20260901051613 57 0 0.0 0.0 0.00 0.42 0.00 96 1013.2
20260901050109 57 0 0.0 0.0 0.00 0.42 0.00 95 1013.2
20260901044604 58 0 0.0 0.0 0.00 0.42 0.42 96 1013.3
20260901043057 58 0 0.0 0.0 0.00 0.42 0.42 96 1013.3
20260901041552 58 0 0.0 0.0 0.00 0.42 0.42 95 1013.2
20260901040052 59 0 0.0 0.0 0.00 0.42 0.42 95 1013.3
20260901034607 59 0 0.0 0.0 0.00 0.42 0.42 94 1013.2
20260901033110 60 0 0.0 0.0 0.00 0.42 0.42 94 1013.2
20260901031556 60 0 0.0 0.0 0.00 0.42 0.42 94 1013.2
20260901030054 61 0 0.0 0.0 0.00 0.42 0.42 93 1013.2
20260901024602 61 0 0.0 0.0 0.00 0.42 0.42 93 1013.2
20260901023056 62 0 0.0 0.0 0.00 0.42 0.42 92 1013.0
20260901021553 62 0 0.0 0.0 0.00 0.42 0.42 92 1013.2
20260901020101 63 0 0.0 0.0 0.00 0.42 0.42 90 1013.1
20260901014607 64 0 0.0 0.0 0.00 0.42 0.42 89 1012.9
20260901013101 65 0 0.0 0.0 0.00 0.42 0.42 88 1012.6
20260901011607 66 0 0.0 0.0 0.00 0.42 0.42 86 1012.5
20260901010058 68 0 0.0 0.0 0.00 0.42 0.42 83 1012.4
20260901004618 70 0 0.0 0.0 0.00 0.42 0.42 79 1012.1
20260901003101 73 0 0.0 0.0 0.00 0.42 0.42 75 1012.0
20260901001606 75 0 0.0 0.0 0.00 0.42 0.42 70 1011.9
20260901000109 77 0 0.0 3.0 0.00 0.42 0.42 67 1012.0
20260831234609 79 0 0.0 4.0 0.00 0.42 0.42 61 1011.9
20260831233105 78 211 0.0 3.0 0.00 0.42 0.42 61 1012.0
20260831231609 78 0 0.0 4.0 0.00 0.42 0.42 60 1012.0
20260831230059 78 319 0.0 4.0 0.00 0.42 0.42 54 1011.9
20260831224558 78 335 0.0 6.0 0.00 0.42 0.42 52 1011.8
20260831223106 79 199 0.0 7.0 0.00 0.42 0.42 52 1011.9
20260831221610 79 0 0.0 4.0 0.00 0.42 0.42 53 1011.9
20260831220103 79 294 0.0 7.0 0.00 0.42 0.42 50 1011.8
20260831214607 80 0 1.0 7.0 0.00 0.42 0.42 50 1011.7
20260831213101 82 40 2.0 6.0 0.00 0.42 0.42 51 1011.8
20260831211601 81 287 1.0 7.0 0.00 0.42 0.42 51 1012.0
20260831210106 81 263 2.0 7.0 0.00 0.42 0.42 49 1012.0
20260831204553 81 304 3.0 10.0 0.00 0.42 0.42 56 1012.0
20260831203107 81 242 2.0 8.0 0.00 0.42 0.42 62 1011.7
20260831201559 80 288 3.0 9.0 0.00 0.42 0.42 64 1011.8
20260831200059 80 184 3.0 12.0 0.00 0.42 0.42 64 1011.7
20260831194615 79 317 2.0 11.0 0.00 0.42 0.42 66 1011.6
20260831193104 79 279 2.0 10.0 0.00 0.42 0.42 76 1011.4